Location: Sangrey
(48.2845°N, 109.8206°W)
Time: 06:50:50
(UTC+00:00)

Tiangong - Visible Passes

Search period start: 24 January 2022 00:00
Search period end: 03 February 2022 00:00
Orbit: 383 x 386 km, 41.5° (Epoch: 23 January)

Date Brightness Start Highest point End Pass type
(mag) Time Alt. Az. Time Alt. Az. Time Alt. Az.
28 Jan 3.8 02:05:22 10° S 02:05:55 11° S 02:05:55 11° S visible
29 Jan 4.0 02:40:47 10° SW 02:41:18 13° SSW 02:41:18 13° SSW visible
30 Jan 3.2 01:41:32 10° SSW 01:43:33 16° SSE 01:44:26 14° SE visible
31 Jan 3.0 02:17:34 10° SW 02:19:42 22° S 02:19:42 22° S visible
01 Feb 3.1 01:18:03 10° SW 01:20:26 20° SSE 01:22:44 10° ESE visible
01 Feb 4.0 02:54:09 10° WSW 02:54:56 15° SW 02:54:56 15° SW visible
02 Feb 2.8 01:54:23 10° SW 01:57:00 24° S 01:57:57 20° SSE visible
